Weather History for Pittsfield, MA

Change the Weather History Date:

Saturday, October 19, 2013

  Actual Average Record
Temperature  
Mean Temperature 49 °F 46 °F  
Max Temperature 62 °F 57 °F 80 °F (1963)
Min Temperature 35 °F 36 °F 21 °F (1948)
Degree Days  
Heating Degree Days 16 19  
Month to date heating degree days 184 298  
Since 1 July heating degree days 493 590  
Cooling Degree Days 0 0  
Month to date cooling degree days 0 0  
Year to date cooling degree days 433 289  
Moisture  
Dew Point 38 °F    
Average Humidity 70    
Maximum Humidity 100    
Minimum Humidity 39    
Precipitation  
Precipitation T in 0.17 in 1.34 in (1937)
Month to date precipitation 1.14 3.21  
Year to date precipitation 32.93 36.95  
Sea Level Pressure  
Sea Level Pressure 29.86 in    
Wind  
Wind Speed 5 mph (South)    
Max Wind Speed 15 mph    
Max Gust Speed 22 mph    
Visibility 8 miles    
Events Fog , Rain    
T = Trace of Precipitation, MM = Missing Value Source: NWS Daily Summary

Daily Weather History Graph

Daily Weather History Graph

Search for Another Location

Airport:

Trip Planner

Search our weather history database for the weather conditions in past years. The results will help you decide how hot, cold, wet, or windy it might be!

Date:

Astronomy

Oct. 19, 2013 Rise Set
Actual Time 7:11 AM EDT 6:04 PM EDT
Civil Twilight 6:42 AM EDT 6:32 PM EDT
Nautical Twilight 6:09 AM EDT 7:05 PM EDT
Astronomical Twilight 5:37 AM EDT 7:38 PM EDT
Moon 6:28 PM EDT (10/19) 7:47 AM EDT (10/19)
Length of Visible Light 11h 50m
Length of Day
10h 53m
Waxing Gibbous, 99% of the Moon is Illuminated
Oct 19
Waxing Gibbous
Oct 26
Last Quarter
Nov 3
New
Nov 10
First Quarter
Nov 17
Full

Hourly Weather History & Observations

Time (EDT) Temp. Dew Point Humidity Pressure Visibility Wind Dir Wind Speed Gust Speed Precip Events Conditions
12:54 AM 42.1 °F 37.0 °F 82% 29.92 in 10.0 mi Calm Calm - N/A   Clear
1:54 AM 48.9 °F 37.0 °F 64% 29.91 in 10.0 mi SW 5.8 mph - N/A   Clear
2:54 AM 41.0 °F 37.0 °F 86% 29.91 in 10.0 mi Calm Calm - N/A   Clear
3:54 AM 41.0 °F 37.0 °F 86% 29.91 in 10.0 mi Calm Calm - N/A   Clear
4:54 AM 39.0 °F 37.0 °F 93% 29.92 in 9.0 mi Calm Calm - N/A   Clear
5:51 AM 37.4 °F 35.6 °F 93% 29.95 in 0.8 mi Calm Calm - N/A   Clear
5:54 AM 36.0 °F 35.1 °F 97% 29.94 in 0.5 mi Calm Calm - N/A Fog Fog
6:04 AM 35.6 °F 35.6 °F 100% 29.94 in 2.0 mi Calm Calm - N/A   Clear
6:11 AM 35.6 °F 33.8 °F 93% 29.94 in 6.0 mi Calm Calm - N/A   Clear
6:54 AM 36.0 °F 34.0 °F 93% 29.93 in 7.0 mi Calm Calm - N/A   Clear
7:36 AM 35.6 °F 35.6 °F 100% 29.94 in 0.5 mi Calm Calm - N/A Fog Fog
7:40 AM 37.4 °F 35.6 °F 93% 29.94 in 2.0 mi Calm Calm - N/A   Clear
7:47 AM 37.4 °F 35.6 °F 93% 29.94 in 7.0 mi Calm Calm - N/A   Clear
7:54 AM 37.9 °F 37.0 °F 97% 29.94 in 6.0 mi Calm Calm - N/A   Clear
8:54 AM 44.1 °F 39.9 °F 85% 29.94 in 6.0 mi Calm Calm - N/A   Clear
9:54 AM 48.9 °F 39.9 °F 71% 29.93 in 10.0 mi Calm Calm - N/A   Clear
10:54 AM 54.0 °F 41.0 °F 62% 29.91 in 10.0 mi Calm Calm - N/A   Clear
11:54 AM 61.0 °F 39.9 °F 46% 29.88 in 10.0 mi South 8.1 mph - N/A   Clear
12:54 PM 60.1 °F 37.0 °F 42% 29.86 in 10.0 mi SSE 10.4 mph 19.6 mph N/A   Clear
1:54 PM 60.1 °F 36.0 °F 41% 29.83 in 10.0 mi SSW 12.7 mph 21.9 mph N/A   Clear
2:54 PM 60.1 °F 36.0 °F 41% 29.81 in 10.0 mi South 10.4 mph - N/A   Partly Cloudy
3:54 PM 59.0 °F 37.0 °F 44% 29.82 in 10.0 mi South 11.5 mph - N/A   Mostly Cloudy
4:54 PM 57.0 °F 35.1 °F 44% 29.78 in 10.0 mi Variable 5.8 mph - N/A   Mostly Cloudy
5:54 PM 55.9 °F 36.0 °F 47% 29.79 in 10.0 mi Variable 5.8 mph - N/A   Overcast
6:54 PM 55.0 °F 37.9 °F 53% 29.79 in 10.0 mi SW 4.6 mph - N/A   Mostly Cloudy
7:54 PM 53.1 °F 41.0 °F 64% 29.76 in 10.0 mi South 3.5 mph - 0.00 in   Overcast
8:54 PM 53.1 °F 41.0 °F 64% 29.73 in 10.0 mi South 6.9 mph - N/A   Overcast
9:54 PM 53.1 °F 42.1 °F 66% 29.72 in 10.0 mi SSW 9.2 mph - N/A   Overcast
10:54 PM 53.1 °F 45.0 °F 74% 29.70 in 10.0 mi South 11.5 mph 18.4 mph 0.00 in Rain Light Rain
11:54 PM 51.1 °F 46.0 °F 83% 29.67 in 10.0 mi South 6.9 mph - 0.00 in   Overcast